TimeCDT,TemperatureF,Dew PointF,Humidity,Sea Level PressureIn,VisibilityMPH,Wind Direction,Wind SpeedMPH,Gust SpeedMPH,PrecipitationIn,Events,Conditions,WindDirDegrees,DateUTC
12:53 AM,59.0,57.0,93,30.09,10.0,Calm,Calm,-,N/A,,Clear,0,2012-10-10 05:53:00
1:53 AM,59.0,55.9,90,30.10,9.0,NW,3.5,-,N/A,,Clear,320,2012-10-10 06:53:00
2:53 AM,60.1,57.0,90,30.11,10.0,NW,5.8,-,N/A,,Partly Cloudy,310,2012-10-10 07:53:00
3:21 AM,59.0,57.2,94,30.11,10.0,NW,6.9,-,N/A,,Clear,320,2012-10-10 08:21:00
3:53 AM,60.1,57.0,90,30.12,10.0,NW,3.5,-,N/A,,Clear,320,2012-10-10 08:53:00
4:53 AM,59.0,55.9,90,30.13,10.0,Calm,Calm,-,N/A,,Clear,0,2012-10-10 09:53:00
5:53 AM,57.0,55.0,93,30.14,10.0,Calm,Calm,-,0.01,,Clear,0,2012-10-10 10:53:00
6:53 AM,57.0,55.0,93,30.15,10.0,Calm,Calm,-,N/A,,Clear,0,2012-10-10 11:53:00
7:53 AM,62.1,59.0,90,30.15,10.0,Calm,Calm,-,N/A,,Clear,0,2012-10-10 12:53:00
8:53 AM,69.1,61.0,75,30.17,10.0,Calm,Calm,-,N/A,,Clear,0,2012-10-10 13:53:00
9:53 AM,75.0,61.0,62,30.18,10.0,NNW,4.6,-,N/A,,Clear,330,2012-10-10 14:53:00
10:53 AM,79.0,61.0,54,30.17,10.0,North,3.5,-,N/A,,Clear,10,2012-10-10 15:53:00
11:53 AM,80.1,59.0,48,30.17,10.0,North,4.6,-,N/A,,Clear,10,2012-10-10 16:53:00
12:53 PM,80.1,63.0,56,30.15,10.0,Variable,5.8,-,N/A,,Partly Cloudy,0,2012-10-10 17:53:00
1:53 PM,82.0,61.0,49,30.12,10.0,ESE,5.8,-,N/A,,Clear,110,2012-10-10 18:53:00
2:53 PM,82.0,62.1,51,30.10,10.0,East,4.6,-,N/A,,Partly Cloudy,100,2012-10-10 19:53:00
3:53 PM,81.0,62.1,52,30.10,10.0,East,5.8,-,N/A,,Mostly Cloudy,80,2012-10-10 20:53:00
4:53 PM,81.0,63.0,54,30.10,10.0,NE,6.9,-,N/A,,Mostly Cloudy,40,2012-10-10 21:53:00
5:53 PM,80.1,62.1,54,30.10,10.0,North,9.2,-,N/A,,Scattered Clouds,10,2012-10-10 22:53:00
6:53 PM,78.1,62.1,58,30.12,10.0,North,5.8,-,N/A,,Mostly Cloudy,10,2012-10-10 23:53:00
7:53 PM,71.1,63.0,75,30.14,10.0,Calm,Calm,-,N/A,,Partly Cloudy,0,2012-10-11 00:53:00
8:53 PM,66.9,62.1,84,30.17,10.0,Calm,Calm,-,N/A,,Clear,0,2012-10-11 01:53:00
9:53 PM,69.1,63.0,81,30.17,10.0,North,3.5,-,N/A,,Clear,350,2012-10-11 02:53:00
10:53 PM,68.0,63.0,84,30.18,10.0,NW,3.5,-,N/A,,Clear,320,2012-10-11 03:53:00
11:53 PM,64.9,62.1,90,30.18,10.0,Calm,Calm,-,N/A,,Clear,0,2012-10-11 04:53:00